Date,Time,Wetness (Wet Dry or Ice),Wind Speed (m/s),Temperature (C),Humidity (%),Pressure (mb),Radiation (W/m^2)
2020-11-03,02:55:00,DRY,3.60,8.10,29.0,778.00,2.0
2020-11-03,03:00:00,DRY,4.83,8.33,28.3,777.33,0.6
2020-11-03,03:05:00,DRY,4.80,8.55,27.5,777.00,1.3
2020-11-03,03:10:00,DRY,4.13,8.30,29.7,777.00,0.9
2020-11-03,03:15:00,DRY,4.15,8.20,29.5,777.00,1.1
2020-11-03,03:20:00,DRY,5.17,8.30,28.0,777.00,0.9
2020-11-03,03:25:00,DRY,4.10,8.55,26.5,777.00,1.2
2020-11-03,03:30:00,DRY,5.33,8.53,25.7,777.00,1.0
2020-11-03,03:35:00,DRY,5.10,8.80,24.5,777.00,1.1
2020-11-03,03:40:00,DRY,3.73,8.90,24.0,777.00,1.2
2020-11-03,03:45:00,DRY,2.10,8.80,23.5,777.00,1.3
2020-11-03,03:50:00,DRY,3.77,8.83,24.3,777.00,1.4
2020-11-03,03:55:00,DRY,5.80,8.80,25.5,777.00,1.1
2020-11-03,04:00:00,DRY,4.13,8.70,30.0,777.00,1.9
2020-11-03,04:05:00,DRY,4.30,8.65,29.5,777.00,1.2
2020-11-03,04:10:00,DRY,4.23,8.53,29.0,777.00,1.2
2020-11-03,04:15:00,DRY,4.10,8.45,34.0,777.00,1.4
2020-11-03,04:20:00,DRY,4.50,8.10,38.0,777.00,1.3
2020-11-03,04:25:00,DRY,2.85,7.50,47.0,777.00,1.4
2020-11-03,04:30:00,DRY,3.07,7.33,48.3,777.00,2.1
2020-11-03,04:35:00,DRY,2.55,7.45,49.0,777.00,1.8
2020-11-03,04:40:00,DRY,3.17,7.40,54.3,777.00,1.0
2020-11-03,04:45:00,DRY,3.90,7.25,54.0,777.00,1.0
2020-11-03,04:50:00,DRY,4.60,7.30,54.7,777.00,1.3
2020-11-03,04:55:00,DRY,2.65,7.65,55.0,777.00,1.2
2020-11-03,05:00:00,DRY,4.37,7.47,55.7,777.00,0.7
2020-11-03,05:05:00,DRY,4.05,7.85,56.0,777.00,1.0
2020-11-03,05:10:00,DRY,3.60,7.70,55.7,777.00,1.2
2020-11-03,05:15:00,DRY,4.45,7.65,56.5,777.00,1.2
2020-11-03,05:20:00,DRY,4.13,7.60,56.3,777.00,1.1
2020-11-03,05:25:00,DRY,5.30,7.85,56.5,777.00,1.2
2020-11-03,05:30:00,DRY,2.47,8.07,54.3,777.00,0.7
2020-11-03,05:35:00,DRY,3.10,8.20,55.0,777.00,0.8
2020-11-03,05:40:00,DRY,2.10,8.47,52.3,777.00,1.4
2020-11-03,05:45:00,DRY,3.35,8.55,51.0,777.00,1.2
2020-11-03,05:50:00,DRY,1.47,8.27,53.3,777.00,1.0
2020-11-03,05:55:00,DRY,1.70,8.10,52.5,777.00,1.4
2020-11-03,06:00:00,DRY,1.47,8.07,55.3,777.00,1.3
2020-11-03,06:05:00,DRY,3.30,7.80,56.5,777.00,0.9
2020-11-03,06:10:00,DRY,3.23,8.07,55.3,777.00,1.3
2020-11-03,06:15:00,DRY,1.40,7.70,58.5,777.00,1.6
2020-11-03,06:20:00,DRY,3.33,7.83,61.7,777.00,1.5
2020-11-03,06:25:00,DRY,4.25,8.25,59.0,777.00,1.6
2020-11-03,06:30:00,WET,5.73,8.00,75.7,777.00,1.4
2020-11-03,06:35:00,WET,5.20,7.90,80.0,777.00,1.8
2020-11-03,06:40:00,DRY,3.93,8.87,56.3,777.00,1.9
2020-11-03,06:45:00,DRY,3.35,10.70,36.5,777.00,1.4
2020-11-03,06:50:00,DRY,3.20,11.07,35.0,777.00,1.1
2020-11-03,06:55:00,DRY,4.65,11.10,34.5,777.00,1.1
2020-11-03,07:00:00,DRY,2.70,10.53,38.3,777.00,0.9
2020-11-03,07:05:00,DRY,2.05,10.15,40.0,777.00,1.1
2020-11-03,07:10:00,DRY,2.40,9.67,43.0,777.00,1.5
2020-11-03,07:15:00,DRY,3.65,9.20,46.5,777.00,2.8
2020-11-03,07:20:00,DRY,3.43,9.57,42.7,777.00,4.5
2020-11-03,07:25:00,DRY,4.30,9.75,42.5,777.00,7.1
2020-11-03,07:30:00,DRY,2.70,9.30,42.7,777.00,9.8
2020-11-03,07:35:00,DRY,3.50,9.65,39.5,777.00,11.4
2020-11-03,07:40:00,DRY,3.47,9.17,44.7,777.00,14.0
2020-11-03,07:45:00,DRY,2.95,9.40,44.0,777.00,17.1
2020-11-03,07:50:00,DRY,3.23,9.50,43.3,777.00,18.6
2020-11-03,07:55:00,DRY,1.00,9.20,45.5,777.50,20.7
2020-11-03,08:00:00,DRY,1.27,9.20,44.7,778.00,101.7
2020-11-03,08:05:00,DRY,1.50,9.65,42.0,778.00,156.8
2020-11-03,08:10:00,DRY,2.53,9.63,42.0,778.00,177.1
2020-11-03,08:15:00,DRY,3.15,9.90,42.0,778.00,197.8
2020-11-03,08:20:00,DRY,2.53,9.93,42.0,778.00,219.4
2020-11-03,08:25:00,DRY,1.75,9.80,43.5,778.00,239.1
2020-11-03,08:30:00,DRY,2.23,9.63,43.7,778.00,260.8
2020-11-03,08:35:00,DRY,3.00,9.85,42.0,778.00,281.9
2020-11-03,08:40:00,DRY,3.10,9.90,40.7,778.00,303.3
2020-11-03,08:45:00,DRY,2.45,9.80,41.0,778.00,324.9
2020-11-03,08:50:00,DRY,3.97,10.30,40.7,778.00,345.8
2020-11-03,08:55:00,DRY,2.80,10.50,41.5,778.00,366.4
2020-11-03,09:00:00,DRY,2.00,10.33,42.7,778.00,388.0
2020-11-03,09:05:00,DRY,1.35,10.40,47.5,778.00,408.2
2020-11-03,09:10:00,DRY,2.20,10.43,45.3,778.00,428.1
2020-11-03,09:15:00,DRY,2.70,10.45,44.5,778.00,448.5
2020-11-03,09:20:00,DRY,3.23,10.57,41.7,778.00,468.8
2020-11-03,09:25:00,DRY,2.25,10.35,41.5,778.00,487.8
2020-11-03,09:30:00,DRY,1.37,10.63,39.0,778.00,506.7
2020-11-03,09:35:00,DRY,1.05,10.85,36.0,778.00,525.6
2020-11-03,09:40:00,DRY,1.17,10.90,36.7,778.00,543.1
2020-11-03,09:45:00,DRY,1.55,11.20,34.0,778.00,562.0
2020-11-03,09:50:00,DRY,0.87,11.10,33.3,778.00,579.8
2020-11-03,09:55:00,DRY,1.70,10.95,33.5,778.00,596.4
2020-11-03,10:00:00,DRY,2.67,11.10,33.7,778.00,613.1
2020-11-03,10:05:00,DRY,2.35,10.65,32.0,778.00,630.2
2020-11-03,10:10:00,DRY,2.30,10.53,29.3,778.00,645.8
2020-11-03,10:15:00,DRY,2.00,10.70,30.0,778.00,661.9
2020-11-03,10:20:00,DRY,2.63,10.97,29.3,778.00,677.0
2020-11-03,10:25:00,DRY,2.10,11.25,33.5,778.00,690.9
2020-11-03,10:30:00,DRY,1.67,11.37,31.0,778.00,704.8
2020-11-03,10:35:00,DRY,1.70,11.40,30.5,778.00,719.5
2020-11-03,10:40:00,DRY,2.40,11.43,28.7,778.00,733.1
2020-11-03,10:45:00,DRY,4.25,11.60,24.5,778.00,746.3
2020-11-03,10:50:00,DRY,4.43,11.77,21.3,778.00,759.4
2020-11-03,10:55:00,DRY,2.40,11.85,20.5,778.00,772.3
2020-11-03,11:00:00,DRY,5.37,11.73,18.0,778.00,785.2
2020-11-03,11:05:00,DRY,4.50,11.95,17.5,778.00,797.4
2020-11-03,11:10:00,DRY,4.87,11.73,18.7,778.00,806.9
2020-11-03,11:15:00,DRY,2.65,11.80,19.5,778.00,817.0
2020-11-03,11:20:00,DRY,2.77,12.07,18.3,778.00,825.5
2020-11-03,11:25:00,DRY,3.10,12.15,18.0,778.00,835.2
2020-11-03,11:30:00,DRY,1.73,12.37,19.7,778.00,843.9
2020-11-03,11:35:00,DRY,3.80,12.35,19.0,778.00,851.0
2020-11-03,11:40:00,DRY,2.17,12.23,22.3,778.00,858.2
2020-11-03,11:45:00,DRY,2.40,12.25,20.0,778.00,865.0
2020-11-03,11:50:00,DRY,2.87,12.43,25.0,778.00,871.1
2020-11-03,11:55:00,DRY,2.95,12.35,20.5,778.00,878.2
2020-11-03,12:00:00,DRY,2.13,12.73,21.7,778.00,882.3
2020-11-03,12:05:00,DRY,1.70,12.60,24.5,778.00,888.2
2020-11-03,12:10:00,DRY,2.40,12.67,27.0,778.00,892.8
2020-11-03,12:15:00,DRY,2.30,12.75,26.5,778.00,898.4
2020-11-03,12:20:00,DRY,4.23,12.30,28.7,778.00,902.2
2020-11-03,12:25:00,DRY,3.05,12.10,26.5,778.00,905.3
2020-11-03,12:30:00,DRY,3.37,12.03,27.7,778.00,908.4
2020-11-03,12:35:00,DRY,3.40,11.95,28.0,778.00,909.0
2020-11-03,12:40:00,DRY,3.43,11.93,28.7,778.00,911.1
2020-11-03,12:45:00,DRY,3.65,11.75,29.5,778.00,912.0
2020-11-03,12:50:00,DRY,6.30,11.53,29.3,778.00,911.5
2020-11-03,12:55:00,DRY,5.55,11.45,30.5,778.00,911.4
2020-11-03,13:00:00,DRY,4.40,11.37,29.7,778.00,911.4
2020-11-03,13:05:00,DRY,5.30,11.60,29.5,778.00,910.9
2020-11-03,13:10:00,DRY,4.70,11.50,31.0,778.00,908.2
2020-11-03,13:15:00,DRY,4.10,11.65,28.5,778.00,908.2
2020-11-03,13:20:00,DRY,3.63,11.60,29.7,778.00,904.2
2020-11-03,13:25:00,DRY,3.70,11.10,32.5,778.00,902.0
2020-11-03,13:30:00,DRY,4.30,10.90,31.0,778.00,898.7
2020-11-03,13:35:00,DRY,3.00,11.10,33.0,778.00,893.0
2020-11-03,13:40:00,DRY,3.43,11.30,30.0,778.00,889.8
2020-11-03,13:45:00,DRY,4.15,11.00,34.0,778.00,885.0
2020-11-03,13:50:00,DRY,4.13,11.10,34.0,778.00,878.5
2020-11-03,13:55:00,DRY,4.05,10.60,38.5,778.00,871.6
2020-11-03,14:00:00,DRY,5.37,10.70,36.3,778.00,866.5
2020-11-03,14:05:00,DRY,5.05,10.40,40.5,778.00,857.5
2020-11-03,14:10:00,DRY,5.57,10.33,37.7,778.00,849.2
2020-11-03,14:15:00,DRY,4.55,9.85,42.0,777.50,840.3
2020-11-03,14:20:00,DRY,5.83,10.30,38.7,777.33,832.1
2020-11-03,14:25:00,DRY,7.25,10.15,39.5,777.00,823.7
2020-11-03,14:30:00,DRY,4.67,10.00,36.7,777.00,813.6
2020-11-03,14:35:00,DRY,4.15,9.85,38.0,777.00,803.6
2020-11-03,14:40:00,DRY,4.67,9.83,37.3,777.00,793.1
2020-11-03,14:45:00,DRY,4.60,9.55,39.5,777.00,782.1
2020-11-03,14:50:00,DRY,5.13,9.87,38.3,777.00,771.5
2020-11-03,14:55:00,DRY,5.20,10.10,39.0,777.00,758.8
2020-11-03,15:00:00,DRY,7.97,9.97,33.7,777.00,746.2
2020-11-03,15:05:00,DRY,6.85,10.05,27.5,777.00,732.8
2020-11-03,15:10:00,DRY,5.47,9.90,33.7,777.00,718.8
2020-11-03,15:15:00,DRY,5.75,9.20,40.5,777.00,705.0
2020-11-03,15:20:00,DRY,6.33,8.93,44.0,777.00,688.9
2020-11-03,15:25:00,DRY,6.05,9.50,40.0,777.00,674.8
2020-11-03,15:30:00,DRY,5.13,8.90,44.3,777.00,658.4
2020-11-03,15:35:00,DRY,4.75,8.20,51.0,777.00,641.8
2020-11-03,15:40:00,DRY,7.57,8.83,46.0,777.00,626.0
2020-11-03,15:45:00,DRY,6.05,9.10,44.5,777.00,610.2
2020-11-03,15:50:00,DRY,7.43,8.57,50.3,777.00,593.3
2020-11-03,15:55:00,DRY,7.15,8.80,46.0,777.00,574.3
2020-11-03,16:00:00,DRY,6.37,8.73,45.3,777.00,557.8
2020-11-03,16:05:00,DRY,3.95,8.15,51.5,777.00,538.7
2020-11-03,16:10:00,DRY,5.57,8.30,52.7,777.00,521.4
2020-11-03,16:15:00,DRY,6.20,8.55,45.5,777.00,502.4
2020-11-03,16:20:00,DRY,6.70,8.60,45.3,777.00,483.9
2020-11-03,16:25:00,DRY,7.15,8.15,51.5,777.00,465.0
2020-11-03,16:30:00,DRY,7.13,7.57,59.7,777.00,443.2
2020-11-03,16:35:00,DRY,4.20,7.80,54.5,777.00,422.0
2020-11-03,16:40:00,DRY,7.07,7.67,48.0,777.00,403.1
2020-11-03,16:45:00,DRY,6.50,8.25,42.0,777.00,381.9
2020-11-03,16:50:00,DRY,5.80,8.20,48.0,777.00,361.5
2020-11-03,16:55:00,DRY,5.70,7.15,62.0,777.00,340.3
2020-11-03,17:00:00,DRY,7.30,7.73,48.3,777.00,318.0
2020-11-03,17:05:00,DRY,5.15,8.20,44.0,777.00,297.1
2020-11-03,17:10:00,DRY,7.00,8.03,45.7,777.00,276.1
2020-11-03,17:15:00,DRY,5.70,8.00,45.0,777.00,254.3
2020-11-03,17:20:00,DRY,8.13,7.70,49.7,777.00,233.7
2020-11-03,17:25:00,DRY,7.70,8.00,45.0,777.00,213.9
2020-11-03,17:30:00,DRY,7.57,7.63,51.3,777.00,193.8
2020-11-03,17:35:00,DRY,5.80,7.30,50.0,777.00,173.9
2020-11-03,17:40:00,DRY,6.23,7.13,51.0,776.67,155.4
2020-11-03,17:45:00,DRY,4.45,8.15,41.0,776.50,132.8
2020-11-03,17:50:00,DRY,3.90,7.80,46.0,776.67,105.2
2020-11-03,17:55:00,DRY,7.10,7.90,45.0,776.00,80.2
2020-11-03,18:00:00,DRY,8.07,8.07,43.7,776.00,59.5
2020-11-03,18:05:00,DRY,7.20,8.15,41.5,776.00,42.1
2020-11-03,18:10:00,DRY,5.93,8.20,42.0,776.00,28.2
2020-11-03,18:15:00,DRY,5.85,8.10,43.0,776.00,17.5
2020-11-03,18:20:00,DRY,5.87,8.20,39.0,776.00,13.4
2020-11-03,18:25:00,DRY,6.85,7.75,45.0,776.00,8.8
2020-11-03,18:30:00,DRY,7.43,7.10,55.0,776.00,4.5
2020-11-03,18:35:00,DRY,2.15,6.90,56.5,776.00,2.3
2020-11-03,18:40:00,DRY,3.67,7.33,47.7,776.00,1.6
2020-11-03,18:45:00,DRY,7.45,7.40,44.5,776.00,1.5
2020-11-03,18:50:00,DRY,5.33,7.60,43.3,776.00,1.2
2020-11-03,18:55:00,DRY,5.40,7.30,44.0,776.00,1.2
2020-11-03,19:00:00,DRY,5.60,7.43,43.3,776.00,1.4
2020-11-03,19:05:00,DRY,6.30,7.50,43.0,776.00,1.1
2020-11-03,19:10:00,DRY,4.03,7.40,46.7,776.00,1.2
2020-11-03,19:15:00,DRY,2.70,7.00,49.0,776.00,1.4
2020-11-03,19:20:00,DRY,4.63,7.53,42.3,776.00,1.5
2020-11-03,19:25:00,DRY,6.70,7.55,42.5,776.00,1.6
2020-11-03,19:30:00,DRY,3.87,7.50,43.0,776.67,1.2
2020-11-03,19:35:00,DRY,4.95,7.30,43.5,777.00,1.4
2020-11-03,19:40:00,DRY,7.97,7.13,44.7,776.67,1.1
2020-11-03,19:45:00,DRY,9.35,7.25,44.0,777.00,1.5
2020-11-03,19:50:00,DRY,8.30,7.23,41.7,776.67,1.5
2020-11-03,19:55:00,DRY,7.20,7.35,42.0,777.00,1.8
2020-11-03,20:00:00,DRY,5.50,7.30,41.7,777.00,1.3
2020-11-03,20:05:00,DRY,5.80,6.95,50.0,777.00,1.2
2020-11-03,20:10:00,DRY,8.43,6.97,44.0,777.00,1.3
2020-11-03,20:15:00,DRY,8.60,7.35,41.0,777.00,0.9
2020-11-03,20:20:00,DRY,7.33,7.20,41.3,777.00,0.9
2020-11-03,20:25:00,DRY,6.30,7.00,42.5,777.00,1.3
2020-11-03,20:30:00,DRY,9.13,6.77,46.3,777.00,1.2
2020-11-03,20:35:00,DRY,9.05,6.90,45.0,777.00,1.2
2020-11-03,20:40:00,DRY,6.67,7.20,43.7,777.00,1.3
2020-11-03,20:45:00,DRY,10.65,6.15,71.0,777.00,1.5
2020-11-03,20:50:00,DRY,8.23,5.87,66.0,777.00,1.1
2020-11-03,20:55:00,DRY,7.80,5.75,63.5,777.00,1.4
2020-11-03,21:00:00,DRY,8.20,5.27,69.3,777.00,1.2
2020-11-03,21:05:00,DRY,7.05,5.35,62.5,777.00,1.1
2020-11-03,21:10:00,DRY,5.80,6.03,52.3,777.00,1.4
2020-11-03,21:15:00,DRY,8.45,5.95,51.0,777.00,1.0
2020-11-03,21:20:00,DRY,7.43,5.93,50.7,777.00,2.1
2020-11-03,21:25:00,DRY,7.40,6.00,47.0,777.00,2.1
2020-11-03,21:30:00,DRY,8.70,6.13,49.0,777.00,1.4
2020-11-03,21:35:00,DRY,6.65,6.30,50.5,777.00,1.5
2020-11-03,21:40:00,DRY,6.23,6.03,58.0,777.00,1.1
2020-11-03,21:45:00,DRY,5.75,6.25,50.0,777.00,1.6
2020-11-03,21:50:00,DRY,4.97,6.33,51.3,777.00,1.3
2020-11-03,21:55:00,DRY,5.95,6.20,49.0,777.00,1.1
2020-11-03,22:00:00,DRY,6.10,6.33,44.0,777.00,1.3
2020-11-03,22:05:00,DRY,5.40,6.25,46.0,777.00,1.4
2020-11-03,22:10:00,DRY,6.13,6.33,44.7,777.00,1.2
2020-11-03,22:15:00,DRY,7.60,6.15,51.5,777.00,1.4
2020-11-03,22:20:00,DRY,8.87,6.37,46.0,777.00,1.3
2020-11-03,22:25:00,DRY,9.00,6.50,44.0,777.00,1.1
2020-11-03,22:30:00,DRY,6.50,6.53,42.0,777.00,1.2
2020-11-03,22:35:00,DRY,9.65,6.15,45.5,777.00,1.2
2020-11-03,22:40:00,DRY,9.17,6.33,45.0,777.00,1.4
2020-11-03,22:45:00,DRY,6.40,6.50,48.0,777.00,1.1
2020-11-03,22:50:00,DRY,6.43,6.73,51.3,777.00,1.4
2020-11-03,22:55:00,DRY,8.65,6.55,56.0,776.50,1.1
2020-11-03,23:00:00,DRY,8.23,6.43,54.3,776.67,1.4
2020-11-03,23:05:00,DRY,7.00,6.35,56.5,777.00,2.0
2020-11-03,23:10:00,DRY,9.23,6.50,51.7,777.00,1.2
2020-11-03,23:15:00,DRY,8.75,6.45,55.5,777.00,1.4
2020-11-03,23:20:00,DRY,7.80,6.13,59.7,777.00,0.9
2020-11-03,23:25:00,DRY,10.80,6.45,52.5,777.00,1.4
2020-11-03,23:30:00,DRY,8.07,6.50,54.0,777.00,1.1
2020-11-03,23:35:00,DRY,7.80,6.60,52.5,777.00,1.2
2020-11-03,23:40:00,DRY,7.20,6.77,52.3,777.00,1.1
2020-11-03,23:45:00,DRY,7.65,6.80,51.0,777.00,1.1
2020-11-03,23:50:00,DRY,8.63,6.97,46.3,776.67,1.2
2020-11-03,23:55:00,DRY,10.65,6.60,50.5,776.00,1.2
2020-11-04,00:00:00,DRY,7.80,6.27,55.7,776.67,0.6
2020-11-04,00:05:00,DRY,7.55,5.70,60.0,776.50,1.4
2020-11-04,00:10:00,DRY,8.80,5.53,70.3,777.00,1.2
2020-11-04,00:15:00,DRY,9.40,5.85,65.5,776.00,0.8
2020-11-04,00:20:00,DRY,6.60,6.43,55.3,776.67,1.2
2020-11-04,00:25:00,DRY,9.30,6.40,58.0,776.50,1.2
2020-11-04,00:30:00,DRY,7.77,6.37,59.0,776.67,1.2
2020-11-04,00:35:00,DRY,8.20,6.25,62.5,776.00,1.4
2020-11-04,00:40:00,DRY,8.43,5.70,68.7,777.00,1.2
2020-11-04,00:45:00,DRY,5.65,5.85,71.5,776.50,1.3
2020-11-04,00:50:00,DRY,7.00,6.57,55.7,776.33,1.2
2020-11-04,00:55:00,DRY,6.30,6.95,44.5,776.50,1.5
2020-11-04,01:00:00,DRY,5.90,7.20,50.7,776.00,1.4
2020-11-04,01:05:00,DRY,6.15,6.85,60.5,776.50,1.7
2020-11-04,01:10:00,DRY,6.50,6.03,69.3,776.67,1.5
2020-11-04,01:15:00,DRY,5.70,5.75,70.0,776.00,0.9
2020-11-04,01:20:00,DRY,6.67,6.03,69.0,776.67,1.2
2020-11-04,01:25:00,DRY,5.25,6.30,72.5,777.00,1.4
2020-11-04,01:30:00,DRY,3.80,7.33,48.0,776.00,2.2
2020-11-04,01:35:00,DRY,4.70,7.15,47.5,776.00,0.8
2020-11-04,01:40:00,DRY,5.23,7.17,59.0,776.00,1.0
2020-11-04,01:45:00,DRY,6.25,6.80,63.0,776.00,1.3
2020-11-04,01:50:00,DRY,6.53,6.03,76.7,776.00,1.1
2020-11-04,01:55:00,DRY,5.90,6.45,71.5,776.00,1.2
2020-11-04,02:00:00,DRY,6.37,6.50,78.3,776.00,1.6
2020-11-04,02:05:00,DRY,7.50,6.30,71.5,776.00,1.2
2020-11-04,02:10:00,DRY,6.43,7.13,66.3,776.00,1.3
2020-11-04,02:15:00,DRY,6.20,5.95,70.0,776.00,1.2
2020-11-04,02:20:00,DRY,6.53,5.70,86.7,776.00,1.6
2020-11-04,02:25:00,WET,7.40,5.65,97.5,776.00,36.0
2020-11-04,02:30:00,WET,5.30,5.23,99.0,776.00,74.5
2020-11-04,02:35:00,WET,6.05,5.25,99.0,776.00,58.4
2020-11-04,02:40:00,WET,4.13,5.70,100.0,776.00,96.7
2020-11-04,02:45:00,WET,4.90,5.40,100.0,776.00,107.5
2020-11-04,02:50:00,WET,6.30,5.43,99.3,776.00,98.6
2020-11-04,02:55:00,WET,6.75,5.75,97.0,776.00,80.1
2020-11-04,03:00:00,WET,6.43,5.33,96.3,776.00,70.3
2020-11-04,03:05:00,WET,6.00,5.30,99.0,776.00,91.8
2020-11-04,03:10:00,WET,5.40,5.33,99.3,776.00,88.7
2020-11-04,03:15:00,WET,6.95,5.55,98.0,776.00,64.3
2020-11-04,03:20:00,WET,6.43,5.73,96.0,776.00,50.1
2020-11-04,03:25:00,DRY,6.25,6.10,93.5,776.00,12.5
2020-11-04,03:30:00,WET,4.90,6.13,97.7,776.00,44.5
2020-11-04,03:35:00,WET,6.95,6.15,99.0,776.00,89.5
2020-11-04,03:40:00,WET,7.63,6.20,100.0,775.67,104.0
2020-11-04,03:45:00,WET,6.25,6.25,100.0,776.00,122.8
2020-11-04,03:50:00,WET,6.70,6.43,100.0,776.00,180.0
2020-11-04,03:55:00,WET,4.25,6.20,100.0,775.50,174.0
2020-11-04,04:00:00,WET,5.70,6.40,100.0,775.67,142.7
2020-11-04,04:05:00,WET,6.20,6.85,100.0,776.00,146.7
2020-11-04,04:10:00,WET,6.67,6.87,100.0,775.67,172.8
2020-11-04,04:15:00,WET,6.95,6.40,100.0,776.00,217.3
2020-11-04,04:20:00,WET,5.07,5.77,100.0,775.33,127.5
2020-11-04,04:25:00,WET,7.00,5.55,100.0,775.00,106.2
2020-11-04,04:30:00,WET,6.20,5.20,99.7,775.00,80.1
2020-11-04,04:35:00,WET,7.05,4.80,99.0,775.00,62.8
2020-11-04,04:40:00,WET,6.27,5.20,98.7,775.00,58.4
2020-11-04,04:45:00,WET,4.00,5.95,100.0,775.00,55.5
2020-11-04,04:50:00,WET,7.80,6.30,100.0,775.00,55.7
2020-11-04,04:55:00,WET,7.75,6.15,100.0,775.00,56.2
2020-11-04,05:00:00,WET,8.37,6.43,100.0,775.00,57.9
2020-11-04,05:05:00,WET,9.35,6.05,100.0,775.00,54.4
2020-11-04,05:10:00,WET,8.30,6.33,100.0,775.00,54.7
2020-11-04,05:15:00,WET,7.45,6.25,100.0,775.00,54.3
2020-11-04,05:20:00,WET,5.93,6.23,100.0,775.00,47.5
2020-11-04,05:25:00,WET,8.35,6.40,100.0,775.00,45.8
2020-11-04,05:30:00,WET,5.40,6.30,100.0,775.00,42.4
2020-11-04,05:35:00,WET,8.30,6.35,100.0,775.00,38.3
2020-11-04,05:40:00,WET,6.17,6.37,100.0,775.00,38.2
2020-11-04,05:45:00,WET,6.25,6.40,100.0,775.00,39.9
2020-11-04,05:50:00,WET,5.53,6.20,100.0,775.00,45.0
2020-11-04,05:55:00,WET,6.50,6.40,100.0,775.00,43.0
2020-11-04,06:00:00,WET,4.70,6.43,100.0,775.00,42.2
2020-11-04,06:05:00,WET,6.00,6.15,100.0,775.00,53.0
2020-11-04,06:10:00,WET,6.30,6.20,100.0,775.00,53.2
2020-11-04,06:15:00,WET,6.70,6.05,100.0,775.00,45.7
2020-11-04,06:20:00,WET,5.53,5.77,100.0,775.00,41.9
2020-11-04,06:25:00,WET,5.20,6.20,100.0,775.00,40.6
2020-11-04,06:30:00,WET,5.10,6.47,100.0,775.00,47.3
2020-11-04,06:35:00,WET,6.20,6.60,100.0,775.00,48.5
2020-11-04,06:40:00,WET,5.57,6.47,100.0,775.00,42.1
2020-11-04,06:45:00,WET,8.30,6.55,100.0,775.00,44.5
2020-11-04,06:50:00,WET,7.87,6.30,100.0,775.00,40.3
2020-11-04,06:55:00,WET,5.65,6.35,100.0,775.00,39.0
2020-11-04,07:00:00,WET,5.93,6.50,100.0,775.00,36.2
2020-11-04,07:05:00,WET,4.70,6.75,100.0,775.00,36.4
2020-11-04,07:10:00,WET,6.90,6.83,100.0,775.00,39.9
2020-11-04,07:15:00,WET,4.10,6.90,100.0,775.00,42.4
2020-11-04,07:20:00,WET,6.93,6.87,100.0,775.00,41.2
2020-11-04,07:25:00,WET,5.70,6.70,100.0,775.00,39.2
2020-11-04,07:30:00,WET,4.37,6.50,100.0,774.67,33.4
2020-11-04,07:35:00,WET,3.90,6.60,100.0,775.00,33.2
2020-11-04,07:40:00,WET,5.33,6.67,100.0,775.00,36.8
2020-11-04,07:45:00,WET,5.25,6.55,100.0,775.00,39.2
2020-11-04,07:50:00,WET,5.47,6.47,100.0,775.00,41.6
2020-11-04,07:55:00,WET,3.70,6.45,100.0,775.00,43.8
2020-11-04,08:00:00,WET,3.97,6.43,100.0,775.00,51.6
2020-11-04,08:05:00,WET,6.20,6.40,100.0,775.00,55.2
2020-11-04,08:10:00,WET,4.50,6.37,100.0,775.00,58.7
2020-11-04,08:15:00,WET,3.75,6.35,100.0,775.00,59.3
2020-11-04,08:20:00,WET,5.03,6.40,100.0,775.00,64.0
2020-11-04,08:25:00,WET,5.55,6.35,100.0,775.00,70.8
2020-11-04,08:30:00,WET,5.13,6.23,100.0,775.00,86.8
2020-11-04,08:35:00,WET,4.75,6.25,100.0,775.00,82.3
2020-11-04,08:40:00,WET,6.23,6.20,100.0,775.00,74.7
2020-11-04,08:45:00,WET,5.25,6.15,100.0,775.00,79.2
2020-11-04,08:50:00,WET,5.10,6.13,100.0,775.00,80.7
2020-11-04,08:55:00,WET,5.40,6.15,100.0,775.00,78.3
2020-11-04,09:00:00,WET,6.43,6.30,100.0,775.00,100.7
2020-11-04,09:05:00,WET,5.30,6.30,100.0,775.00,126.5
2020-11-04,09:10:00,WET,4.60,6.33,100.0,775.00,145.5
2020-11-04,09:15:00,WET,4.15,6.30,100.0,775.00,133.2
2020-11-04,09:20:00,WET,4.60,6.50,100.0,775.00,127.8
2020-11-04,09:25:00,WET,4.35,6.60,100.0,775.00,120.8
2020-11-04,09:30:00,WET,5.67,6.50,100.0,775.00,123.8
2020-11-04,09:35:00,WET,5.95,6.35,100.0,775.00,159.6
2020-11-04,09:40:00,WET,5.03,6.43,100.0,775.00,167.3
2020-11-04,09:45:00,WET,4.60,6.40,100.0,775.00,143.4
2020-11-04,09:50:00,WET,3.93,6.40,100.0,775.00,103.4
2020-11-04,09:55:00,WET,4.20,6.35,100.0,775.00,88.2
2020-11-04,10:00:00,WET,4.37,6.30,100.0,775.00,105.9
2020-11-04,10:05:00,WET,3.10,6.40,100.0,775.00,101.8
2020-11-04,10:10:00,WET,5.17,6.30,100.0,775.00,120.4
2020-11-04,10:15:00,WET,5.60,6.35,100.0,775.00,142.8
2020-11-04,10:20:00,WET,4.73,6.53,100.0,775.00,137.4
2020-11-04,10:25:00,WET,5.00,6.45,100.0,775.00,130.1
2020-11-04,10:30:00,WET,3.67,6.47,100.0,775.00,154.0
2020-11-04,10:35:00,WET,3.75,6.45,100.0,775.00,148.2
2020-11-04,10:40:00,WET,3.37,6.30,100.0,775.00,129.7
2020-11-04,10:45:00,WET,3.40,6.30,100.0,775.00,133.4
2020-11-04,10:50:00,WET,3.77,6.27,100.0,775.00,170.8
2020-11-04,10:55:00,WET,4.35,6.30,100.0,775.00,132.6
2020-11-04,11:00:00,WET,4.50,6.30,100.0,775.00,129.3
2020-11-04,11:05:00,WET,3.50,6.40,100.0,775.00,114.0
2020-11-04,11:10:00,WET,2.00,6.37,100.0,775.00,127.9
2020-11-04,11:15:00,WET,2.90,6.35,100.0,775.00,102.2
2020-11-04,11:20:00,WET,5.13,6.33,100.0,775.00,108.6
2020-11-04,11:25:00,WET,6.65,6.30,100.0,775.00,107.3
2020-11-04,11:30:00,WET,5.20,6.27,100.0,774.67,104.3
2020-11-04,11:35:00,WET,3.65,6.25,100.0,775.00,119.2
2020-11-04,11:40:00,WET,6.17,6.20,100.0,775.00,123.7
2020-11-04,11:45:00,WET,5.45,6.25,100.0,774.50,160.7
2020-11-04,11:50:00,WET,5.50,6.33,100.0,774.33,146.3
2020-11-04,11:55:00,WET,7.00,6.20,100.0,774.00,134.3
2020-11-04,12:00:00,WET,7.60,6.03,100.0,774.00,109.4
2020-11-04,12:05:00,WET,5.60,5.90,100.0,774.00,89.7
2020-11-04,12:10:00,WET,5.57,5.90,100.0,774.00,111.0
2020-11-04,12:15:00,WET,6.20,5.90,100.0,774.00,141.6
2020-11-04,12:20:00,WET,5.20,5.97,100.0,774.00,181.8
2020-11-04,12:25:00,WET,4.35,6.15,100.0,774.00,199.0
2020-11-04,12:30:00,WET,4.70,6.23,100.0,774.00,170.5
2020-11-04,12:35:00,WET,3.20,6.25,100.0,774.00,142.9
2020-11-04,12:40:00,WET,5.10,6.23,100.0,774.00,170.5
2020-11-04,12:45:00,WET,6.00,6.30,100.0,774.00,165.9
2020-11-04,12:50:00,WET,3.97,6.17,100.0,774.00,192.3
2020-11-04,12:55:00,WET,4.35,6.20,100.0,774.00,250.7
2020-11-04,13:00:00,WET,3.73,6.30,100.0,774.00,237.9
2020-11-04,13:05:00,WET,4.90,6.40,100.0,774.00,362.8
2020-11-04,13:10:00,WET,5.03,6.53,100.0,773.00,334.2
2020-11-04,13:15:00,WET,4.45,6.45,100.0,773.00,184.5
2020-11-04,13:20:00,WET,4.23,6.47,100.0,773.00,188.8
2020-11-04,13:25:00,WET,5.05,6.35,100.0,773.00,221.2
2020-11-04,13:30:00,WET,7.40,6.50,100.0,773.00,214.9
2020-11-04,13:35:00,WET,5.30,6.20,100.0,773.00,304.3
2020-11-04,13:40:00,WET,5.67,6.20,100.0,773.00,214.4
2020-11-04,13:45:00,WET,5.80,6.05,100.0,773.00,273.0
2020-11-04,13:50:00,WET,5.43,6.03,100.0,773.00,287.5
2020-11-04,13:55:00,WET,3.60,5.90,100.0,773.00,317.3
2020-11-04,14:00:00,WET,5.33,6.17,100.0,773.00,278.3
2020-11-04,14:05:00,WET,6.35,5.95,100.0,773.00,198.4
2020-11-04,14:10:00,WET,6.67,5.97,100.0,773.00,178.8
2020-11-04,14:15:00,WET,7.40,5.80,100.0,773.00,207.6
2020-11-04,14:20:00,WET,4.43,5.60,100.0,773.00,161.2
2020-11-04,14:25:00,WET,6.20,6.00,100.0,773.00,146.6
2020-11-04,14:30:00,WET,5.63,6.23,100.0,772.67,133.0
2020-11-04,14:35:00,WET,6.25,6.20,100.0,772.00,179.3
2020-11-04,14:40:00,WET,7.37,6.20,100.0,772.00,230.3
2020-11-04,14:45:00,WET,4.55,6.15,100.0,772.50,157.7
2020-11-04,14:50:00,WET,5.67,6.10,100.0,772.00,135.2
2020-11-04,14:55:00,WET,5.75,6.00,100.0,772.00,153.2
2020-11-04,15:00:00,WET,6.20,5.73,100.0,772.00,198.8
2020-11-04,15:05:00,WET,5.10,5.60,100.0,772.00,218.1
2020-11-04,15:10:00,WET,6.53,5.93,100.0,772.00,170.8
2020-11-04,15:15:00,WET,8.35,5.95,100.0,772.00,119.9
2020-11-04,15:20:00,WET,7.07,6.07,100.0,772.00,290.5
2020-11-04,15:25:00,WET,6.45,6.30,100.0,772.00,268.3
2020-11-04,15:30:00,WET,6.77,6.10,100.0,772.00,353.5
2020-11-04,15:35:00,WET,5.75,6.20,100.0,772.00,287.7
2020-11-04,15:40:00,WET,5.03,6.13,100.0,772.00,230.4
2020-11-04,15:45:00,WET,5.15,5.95,100.0,772.00,240.1
2020-11-04,15:50:00,WET,4.63,6.13,100.0,772.00,275.4
2020-11-04,15:55:00,WET,4.55,6.15,100.0,772.00,200.0
2020-11-04,16:00:00,WET,5.57,6.03,100.0,772.00,229.2
2020-11-04,16:05:00,WET,3.90,5.95,100.0,772.00,298.4
2020-11-04,16:10:00,WET,3.50,6.00,100.0,772.00,226.8
2020-11-04,16:15:00,WET,3.45,5.90,100.0,772.00,169.4
2020-11-04,16:20:00,WET,3.53,5.97,100.0,772.00,227.1
2020-11-04,16:25:00,WET,3.45,6.00,100.0,772.00,165.3
2020-11-04,16:30:00,WET,3.57,6.07,100.0,772.00,231.8
2020-11-04,16:35:00,WET,4.80,5.85,100.0,772.00,195.9
2020-11-04,16:40:00,WET,4.00,5.80,100.0,772.00,158.2
2020-11-04,16:45:00,WET,3.25,5.75,100.0,772.00,158.4
2020-11-04,16:50:00,WET,3.67,5.80,100.0,772.00,166.0
2020-11-04,16:55:00,WET,3.35,5.80,100.0,772.00,137.3
2020-11-04,17:00:00,WET,3.90,5.70,100.0,772.00,127.1
2020-11-04,17:05:00,WET,2.95,5.70,100.0,772.00,95.0
2020-11-04,17:10:00,WET,3.30,5.57,100.0,772.00,103.8
2020-11-04,17:15:00,WET,3.35,5.65,100.0,772.00,143.3
2020-11-04,17:20:00,WET,4.67,5.43,100.0,772.00,115.1